Weather History for KSBM - January, 2013

Change the Weather History Date:

Friday, January 4, 2013

  Actual Average (WUND) Record (WUND)
Temperature  
Mean Temperature 19 °F -  
Max Temperature 26 °F - - (-1)
Min Temperature 12 °F - - (-1)
Degree Days  
Heating Degree Days 46    
Moisture  
Dew Point 13 °F    
Average Humidity 71    
Maximum Humidity 81    
Minimum Humidity 66    
Precipitation  
Precipitation 0.00 in - - ()
Sea Level Pressure  
Sea Level Pressure 30.09 in    
Wind  
Wind Speed 16 mph (West)    
Max Wind Speed 22 mph    
Max Gust Speed 29 mph    
Visibility 10 miles    
Events      
Averages and records for this station are not official NWS values.
T = Trace of Precipitation, MM = Missing Value Source: NWS Daily Summary

Daily Weather History Graph

Daily Weather History Graph

Search for Another Location

Airport or City:

Trip Planner

Search our weather history database for the weather conditions in past years. The results will help you decide how hot, cold, wet, or windy it might be!

Date:

Astronomy

Jan. 04, 2013 Rise Set
Actual Time 7:25 AM CST 4:27 PM CST
Civil Twilight 6:52 AM CST 5:00 PM CST
Nautical Twilight 6:16 AM CST 5:36 PM CST
Astronomical Twilight 5:41 AM CST 6:11 PM CST
Moon No Moon Rise 10:52 AM CST (1/4)
Length of Visible Light 10h 07m
Length of Day
9h 02m
Waning Gibbous, 55% of the Moon is Illuminated
Jan 4
Waning Gibbous
Jan 4
Last Quarter
Jan 11
New
Jan 18
First Quarter
Jan 26
Full

Hourly Weather History & Observations

Time (CST) Temp. Windchill Dew Point Humidity Pressure Visibility Wind Dir Wind Speed Gust Speed Precip Events Conditions
12:53 AM 14.0 °F -2.5 °F 6.1 °F 71% 30.11 in 10.0 mi WSW 17.3 mph - N/A   Clear
1:53 AM 14.0 °F -0.2 °F 7.0 °F 74% 30.10 in 10.0 mi WSW 12.7 mph - N/A   Clear
2:53 AM 12.9 °F -3.4 °F 7.0 °F 77% 30.09 in 10.0 mi WSW 16.1 mph - N/A   Clear
3:53 AM 12.9 °F -2.2 °F 8.1 °F 81% 30.06 in 10.0 mi WSW 13.8 mph - N/A   Clear
4:53 AM 14.0 °F -1.4 °F 9.0 °F 80% 30.04 in 10.0 mi WSW 15.0 mph - N/A   Clear
6:53 AM 18.0 °F 2.6 °F 10.9 °F 74% 30.04 in 10.0 mi West 17.3 mph - N/A   Clear
7:53 AM 16.0 °F 0.6 °F 10.9 °F 81% 30.04 in 10.0 mi West 16.1 mph - N/A   Clear
8:53 AM 19.0 °F 2.7 °F 12.0 °F 74% 30.04 in 10.0 mi West 20.7 mph 26.5 mph N/A   Clear
9:53 AM 21.0 °F 6.6 °F 12.9 °F 71% 30.05 in 10.0 mi West 17.3 mph 27.6 mph N/A   Clear
10:53 AM 23.0 °F 8.3 °F 14.0 °F 68% 30.05 in 10.0 mi West 19.6 mph 25.3 mph N/A   Clear
11:53 AM 24.1 °F 9.0 °F 15.1 °F 69% 30.04 in 10.0 mi West 21.9 mph 28.8 mph N/A   Clear
12:53 PM 24.1 °F 9.8 °F 15.1 °F 69% 30.03 in 10.0 mi West 19.6 mph 25.3 mph N/A   Clear
1:53 PM 26.1 °F 14.0 °F 16.0 °F 66% 30.04 in 10.0 mi West 15.0 mph 24.2 mph N/A   Clear
2:53 PM 26.1 °F 15.0 °F 16.0 °F 66% 30.06 in 10.0 mi West 12.7 mph - N/A   Clear
3:53 PM 26.1 °F 13.1 °F 16.0 °F 66% 30.08 in 10.0 mi West 17.3 mph - N/A   Clear
4:53 PM 25.0 °F 12.2 °F 16.0 °F 69% 30.10 in 10.0 mi West 16.1 mph - N/A   Clear
5:53 PM 24.1 °F 10.1 °F 16.0 °F 71% 30.13 in 10.0 mi West 18.4 mph - N/A   Clear
6:53 PM 25.0 °F 12.2 °F 16.0 °F 69% 30.15 in 10.0 mi West 16.1 mph - N/A   Clear
7:53 PM 24.1 °F 13.1 °F 15.1 °F 69% 30.16 in 10.0 mi West 11.5 mph - N/A   Clear
8:53 PM 25.0 °F 13.1 °F 15.1 °F 66% 30.16 in 10.0 mi West 13.8 mph - N/A   Clear
9:53 PM 25.0 °F 14.2 °F 15.1 °F 66% 30.16 in 10.0 mi WNW 11.5 mph - N/A   Clear
10:53 PM 24.1 °F 15.2 °F 15.1 °F 69% 30.18 in 10.0 mi West 8.1 mph - N/A   Clear
11:53 PM 21.9 °F 11.7 °F 14.0 °F 72% 30.18 in 10.0 mi West 9.2 mph - N/A   Clear